Time,TemperatureF,DewpointF,PressureIn,WindDirection,WindDirectionDegrees,WindSpeedMPH,WindSpeedGustMPH,Humidity,HourlyPrecipIn,Conditions,Clouds,dailyrainin,SoftwareType,DateUTC
2013-03-04 00:00:00,23.0,20.5,30.07,North,360,13.0,13.0,90,0.00,,---,0.00,VWS V14.01,2013-03-04 05:00:00,
2013-03-04 00:05:00,23.0,20.2,30.07,North,360,11.0,11.0,89,0.00,,---,0.00,VWS V14.01,2013-03-04 05:05:00,
2013-03-04 00:10:00,23.0,20.5,30.07,NNW,337,8.0,11.0,90,0.00,,---,0.00,VWS V14.01,2013-03-04 05:10:00,
2013-03-04 00:15:00,23.0,20.2,30.07,North,360,10.0,11.0,89,0.00,,---,0.00,VWS V14.01,2013-03-04 05:15:00,
2013-03-04 00:20:00,23.0,20.0,30.07,North,360,9.0,10.0,88,0.00,,---,0.00,VWS V14.01,2013-03-04 05:20:00,
2013-03-04 00:25:00,23.0,20.0,30.07,NNW,337,8.0,9.0,88,0.00,,---,0.00,VWS V14.01,2013-03-04 05:25:00,
2013-03-04 00:30:00,23.0,20.0,30.07,North,360,10.0,10.0,88,0.00,,---,0.00,VWS V14.01,2013-03-04 05:30:00,
2013-03-04 00:35:00,23.0,19.7,30.07,NNW,337,8.0,9.0,87,0.00,,---,0.00,VWS V14.01,2013-03-04 05:35:00,
2013-03-04 00:40:00,23.0,20.0,30.07,NNW,337,8.0,8.0,88,0.00,,---,0.00,VWS V14.01,2013-03-04 05:40:00,
2013-03-04 00:45:00,23.0,20.2,30.07,NW,315,6.0,8.0,89,0.00,,---,0.00,VWS V14.01,2013-03-04 05:45:00,
2013-03-04 00:50:00,23.0,20.0,30.07,NW,315,8.0,8.0,88,0.00,,---,0.00,VWS V14.01,2013-03-04 05:50:00,
2013-03-04 00:55:00,23.0,20.0,30.07,NNW,337,6.0,6.0,88,0.00,,---,0.00,VWS V14.01,2013-03-04 05:55:00,
2013-03-04 01:00:00,23.0,20.0,30.07,NW,315,6.0,6.0,88,0.00,,---,0.00,VWS V14.01,2013-03-04 06:00:00,
2013-03-04 01:05:00,23.0,20.0,30.07,NW,315,5.0,6.0,88,0.00,,---,0.00,VWS V14.01,2013-03-04 06:05:00,
2013-03-04 01:10:00,23.0,20.2,30.07,NW,315,5.0,6.0,89,0.00,,---,0.00,VWS V14.01,2013-03-04 06:10:00,
2013-03-04 01:15:00,23.0,20.2,30.07,NW,315,5.0,6.0,89,0.00,,---,0.00,VWS V14.01,2013-03-04 06:15:00,
2013-03-04 01:20:00,23.0,20.2,30.07,NW,315,5.0,6.0,89,0.00,,---,0.00,VWS V14.01,2013-03-04 06:20:00,
2013-03-04 01:25:00,23.0,20.2,30.07,NW,315,5.0,5.0,89,0.00,,---,0.00,VWS V14.01,2013-03-04 06:25:00,
2013-03-04 01:30:00,23.0,20.2,30.07,NW,315,4.0,5.0,89,0.00,,---,0.00,VWS V14.01,2013-03-04 06:30:00,
2013-03-04 01:35:00,23.0,20.2,30.08,NW,315,5.0,6.0,89,0.00,,---,0.00,VWS V14.01,2013-03-04 06:35:00,
2013-03-04 01:40:00,23.0,20.2,30.08,West,270,6.0,6.0,89,0.00,,---,0.00,VWS V14.01,2013-03-04 06:40:00,
2013-03-04 01:45:00,23.0,20.5,30.08,WNW,292,5.0,6.0,90,0.00,,---,0.00,VWS V14.01,2013-03-04 06:45:00,
2013-03-04 01:50:00,23.0,20.5,30.08,NW,315,5.0,8.0,90,0.00,,---,0.00,VWS V14.01,2013-03-04 06:50:00,
2013-03-04 01:55:00,23.0,20.2,30.08,NW,315,6.0,7.0,89,0.00,,---,0.00,VWS V14.01,2013-03-04 06:55:00,
2013-03-04 02:00:00,23.0,20.2,30.08,West,270,7.0,7.0,89,0.00,,---,0.00,VWS V14.01,2013-03-04 07:00:00,
2013-03-04 02:05:00,23.0,20.5,30.08,West,270,8.0,8.0,90,0.00,,---,0.00,VWS V14.01,2013-03-04 07:05:00,
2013-03-04 02:10:00,23.0,20.5,30.08,West,270,9.0,9.0,90,0.00,,---,0.00,VWS V14.01,2013-03-04 07:10:00,
2013-03-04 02:15:00,23.0,20.8,30.09,West,270,8.0,9.0,91,0.00,,---,0.00,VWS V14.01,2013-03-04 07:15:00,
2013-03-04 02:20:00,23.0,21.0,30.09,West,270,6.0,7.0,92,0.00,,---,0.00,VWS V14.01,2013-03-04 07:20:00,
2013-03-04 02:25:00,23.0,21.0,30.08,West,270,8.0,8.0,92,0.00,,---,0.00,VWS V14.01,2013-03-04 07:25:00,
2013-03-04 02:30:00,23.0,21.0,30.08,West,270,6.0,10.0,92,0.00,,---,0.00,VWS V14.01,2013-03-04 07:30:00,
2013-03-04 02:35:00,23.0,21.5,30.09,West,270,8.0,10.0,94,0.00,,---,0.00,VWS V14.01,2013-03-04 07:35:00,
2013-03-04 02:40:00,23.0,21.3,30.09,West,270,9.0,10.0,93,0.00,,---,0.00,VWS V14.01,2013-03-04 07:40:00,
2013-03-04 02:45:00,23.0,21.3,30.09,West,270,10.0,11.0,93,0.00,,---,0.00,VWS V14.01,2013-03-04 07:45:00,
2013-03-04 02:50:00,23.0,21.3,30.09,West,270,8.0,11.0,93,0.00,,---,0.00,VWS V14.01,2013-03-04 07:50:00,
2013-03-04 02:55:00,23.0,21.5,30.09,West,270,9.0,11.0,94,0.00,,---,0.00,VWS V14.01,2013-03-04 07:55:00,
2013-03-04 03:00:00,23.0,22.0,30.09,West,270,10.0,13.0,96,0.00,,---,0.00,VWS V14.01,2013-03-04 08:00:00,
2013-03-04 03:05:00,23.0,22.0,30.09,WSW,247,8.0,11.0,96,0.00,,---,0.00,VWS V14.01,2013-03-04 08:05:00,
2013-03-04 03:10:00,23.0,21.8,30.09,West,270,9.0,9.0,95,0.00,,---,0.00,VWS V14.01,2013-03-04 08:10:00,
2013-03-04 03:15:00,23.0,21.5,30.09,WSW,247,10.0,12.0,94,0.00,,---,0.00,VWS V14.01,2013-03-04 08:15:00,
2013-03-04 03:21:00,23.0,21.8,30.09,West,270,7.0,11.0,95,0.00,,---,0.00,VWS V14.01,2013-03-04 08:21:00,
2013-03-04 03:26:00,23.0,22.0,30.09,West,270,10.0,10.0,96,0.00,,---,0.00,VWS V14.01,2013-03-04 08:26:00,
2013-03-04 03:31:00,23.0,22.0,30.09,WSW,247,9.0,9.0,96,0.00,,---,0.00,VWS V14.01,2013-03-04 08:31:00,
2013-03-04 03:36:00,22.0,20.8,30.08,SW,225,10.0,10.0,95,0.00,,---,0.00,VWS V14.01,2013-03-04 08:36:00,
2013-03-04 03:41:00,22.0,21.0,30.08,WSW,247,10.0,13.0,96,0.00,,---,0.00,VWS V14.01,2013-03-04 08:41:00,
2013-03-04 03:46:00,22.0,21.0,30.08,SW,225,8.0,9.0,96,0.00,,---,0.00,VWS V14.01,2013-03-04 08:46:00,
2013-03-04 03:51:00,22.0,21.3,30.08,SW,225,6.0,8.0,97,0.00,,---,0.00,VWS V14.01,2013-03-04 08:51:00,
2013-03-04 03:56:00,22.0,21.3,30.08,SW,225,6.0,6.0,97,0.00,,---,0.00,VWS V14.01,2013-03-04 08:56:00,
2013-03-04 04:01:00,22.0,21.3,30.08,SW,225,7.0,7.0,97,0.00,,---,0.00,VWS V14.01,2013-03-04 09:01:00,
2013-03-04 04:06:00,22.0,21.3,30.08,SW,225,6.0,6.0,97,0.00,,---,0.00,VWS V14.01,2013-03-04 09:06:00,
2013-03-04 04:11:00,22.0,21.3,30.08,WSW,247,8.0,8.0,97,0.00,,---,0.00,VWS V14.01,2013-03-04 09:11:00,
2013-03-04 04:16:00,22.0,21.3,30.08,SW,225,6.0,8.0,97,0.00,,---,0.00,VWS V14.01,2013-03-04 09:16:00,
2013-03-04 04:21:00,22.0,21.3,30.08,WSW,247,8.0,8.0,97,0.00,,---,0.00,VWS V14.01,2013-03-04 09:21:00,
2013-03-04 04:26:00,22.0,21.5,30.08,WSW,247,8.0,10.0,98,0.00,,---,0.00,VWS V14.01,2013-03-04 09:26:00,
2013-03-04 04:31:00,22.0,21.8,30.08,West,270,6.0,9.0,99,0.00,,---,0.00,VWS V14.01,2013-03-04 09:31:00,
2013-03-04 04:36:00,22.0,21.8,30.08,WSW,247,8.0,12.0,99,0.00,,---,0.00,VWS V14.01,2013-03-04 09:36:00,
2013-03-04 04:41:00,22.0,22.0,30.08,WSW,247,7.0,9.0,100,0.00,,---,0.00,VWS V14.01,2013-03-04 09:41:00,
2013-03-04 04:46:00,22.0,22.0,30.08,SW,225,8.0,10.0,100,0.00,,---,0.00,VWS V14.01,2013-03-04 09:46:00,
2013-03-04 04:51:00,22.0,22.0,30.08,WSW,247,8.0,10.0,100,0.00,,---,0.00,VWS V14.01,2013-03-04 09:51:00,
2013-03-04 04:56:00,22.0,22.0,30.08,West,270,8.0,8.0,100,0.00,,---,0.00,VWS V14.01,2013-03-04 09:56:00,
2013-03-04 05:01:00,22.0,22.0,30.08,West,270,9.0,10.0,100,0.00,,---,0.00,VWS V14.01,2013-03-04 10:01:00,
2013-03-04 05:06:00,22.0,22.0,30.08,West,270,7.0,9.0,100,0.00,,---,0.00,VWS V14.01,2013-03-04 10:06:00,
2013-03-04 05:11:00,22.0,22.0,30.08,West,270,6.0,9.0,100,0.00,,---,0.00,VWS V14.01,2013-03-04 10:11:00,
2013-03-04 05:16:00,22.0,22.0,30.08,West,270,10.0,11.0,100,0.00,,---,0.00,VWS V14.01,2013-03-04 10:16:00,
2013-03-04 05:21:00,22.0,22.0,30.08,West,270,9.0,11.0,100,0.00,,---,0.00,VWS V14.01,2013-03-04 10:21:00,
2013-03-04 05:26:00,21.0,21.0,30.09,West,270,7.0,10.0,100,0.00,,---,0.00,VWS V14.01,2013-03-04 10:26:00,
2013-03-04 05:31:00,21.0,21.0,30.09,West,270,11.0,11.0,100,0.00,,---,0.00,VWS V14.01,2013-03-04 10:31:00,
2013-03-04 05:36:00,21.0,21.0,30.10,West,270,12.0,12.0,100,0.00,,---,0.00,VWS V14.01,2013-03-04 10:36:00,
2013-03-04 05:41:00,22.0,22.0,30.10,West,270,11.0,13.0,100,0.00,,---,0.00,VWS V14.01,2013-03-04 10:41:00,
2013-03-04 05:46:00,22.0,22.0,30.09,West,270,10.0,12.0,100,0.00,,---,0.00,VWS V14.01,2013-03-04 10:46:00,
2013-03-04 05:51:00,22.0,22.0,30.09,West,270,10.0,13.0,100,0.00,,---,0.00,VWS V14.01,2013-03-04 10:51:00,
2013-03-04 05:56:00,22.0,22.0,30.10,West,270,6.0,11.0,100,0.00,,---,0.00,VWS V14.01,2013-03-04 10:56:00,
2013-03-04 06:01:00,22.0,22.0,30.10,West,270,8.0,11.0,100,0.00,,---,0.00,VWS V14.01,2013-03-04 11:01:00,
2013-03-04 06:06:00,22.0,22.0,30.11,West,270,10.0,11.0,100,0.00,,---,0.00,VWS V14.01,2013-03-04 11:06:00,
2013-03-04 06:11:00,22.0,22.0,30.11,West,270,8.0,11.0,100,0.00,,---,0.00,VWS V14.01,2013-03-04 11:11:00,
2013-03-04 06:16:00,22.0,22.0,30.11,West,270,9.0,13.0,100,0.00,,---,0.00,VWS V14.01,2013-03-04 11:16:00,
2013-03-04 06:21:00,22.0,22.0,30.11,West,270,13.0,14.0,100,0.00,,---,0.00,VWS V14.01,2013-03-04 11:21:00,
2013-03-04 06:26:00,22.0,22.0,30.12,West,270,10.0,13.0,100,0.00,,---,0.00,VWS V14.01,2013-03-04 11:26:00,
2013-03-04 06:31:00,23.0,23.0,30.12,WNW,292,7.0,11.0,100,0.00,,---,0.00,VWS V14.01,2013-03-04 11:31:00,
2013-03-04 06:36:00,23.0,23.0,30.12,West,270,12.0,12.0,100,0.00,,---,0.00,VWS V14.01,2013-03-04 11:36:00,
2013-03-04 06:41:00,23.0,23.0,30.12,West,270,8.0,10.0,100,0.00,,---,0.00,VWS V14.01,2013-03-04 11:41:00,
2013-03-04 06:46:00,23.0,23.0,30.13,West,270,6.0,10.0,100,0.00,,---,0.00,VWS V14.01,2013-03-04 11:46:00,
2013-03-04 06:51:00,22.0,22.0,30.13,West,270,11.0,13.0,100,0.00,,---,0.00,VWS V14.01,2013-03-04 11:51:00,
2013-03-04 06:56:00,22.0,22.0,30.13,West,270,13.0,13.0,100,0.00,,---,0.00,VWS V14.01,2013-03-04 11:56:00,
2013-03-04 07:01:00,23.0,23.0,30.13,WNW,292,6.0,11.0,100,0.00,,---,0.00,VWS V14.01,2013-03-04 12:01:00,
2013-03-04 07:06:00,23.0,23.0,30.13,WNW,292,6.0,9.0,100,0.00,,---,0.00,VWS V14.01,2013-03-04 12:06:00,
2013-03-04 07:11:00,23.0,23.0,30.13,NW,315,10.0,12.0,100,0.00,,---,0.00,VWS V14.01,2013-03-04 12:11:00,
2013-03-04 07:16:00,23.0,23.0,30.14,NW,315,9.0,10.0,100,0.00,,---,0.00,VWS V14.01,2013-03-04 12:16:00,
2013-03-04 07:21:00,23.0,23.0,30.14,NW,315,9.0,11.0,100,0.00,,---,0.00,VWS V14.01,2013-03-04 12:21:00,
2013-03-04 07:26:00,23.0,23.0,30.14,NW,315,10.0,10.0,100,0.00,,---,0.00,VWS V14.01,2013-03-04 12:26:00,
2013-03-04 07:31:00,23.0,22.8,30.14,NW,315,9.0,10.0,99,0.00,,---,0.00,VWS V14.01,2013-03-04 12:31:00,
2013-03-04 07:36:00,23.0,22.8,30.14,NW,315,6.0,9.0,99,0.00,,---,0.00,VWS V14.01,2013-03-04 12:36:00,
2013-03-04 07:41:00,22.0,21.5,30.14,NW,315,8.0,8.0,98,0.00,,---,0.00,VWS V14.01,2013-03-04 12:41:00,
2013-03-04 07:46:00,22.0,21.8,30.14,NW,315,8.0,9.0,99,0.00,,---,0.00,VWS V14.01,2013-03-04 12:46:00,
2013-03-04 07:51:00,22.0,21.8,30.14,NW,315,8.0,8.0,99,0.00,,---,0.00,VWS V14.01,2013-03-04 12:51:00,
2013-03-04 07:56:00,22.0,22.0,30.14,NW,315,7.0,9.0,100,0.00,,---,0.00,VWS V14.01,2013-03-04 12:56:00,
2013-03-04 08:01:00,22.0,22.0,30.14,NW,315,7.0,8.0,100,0.00,,---,0.00,VWS V14.01,2013-03-04 13:01:00,
2013-03-04 08:06:00,22.0,22.0,30.15,NW,315,7.0,7.0,100,0.00,,---,0.00,VWS V14.01,2013-03-04 13:06:00,
2013-03-04 08:11:00,22.0,22.0,30.15,NW,315,6.0,7.0,100,0.00,,---,0.00,VWS V14.01,2013-03-04 13:11:00,
2013-03-04 08:16:00,22.0,22.0,30.16,NW,315,6.0,8.0,100,0.00,,---,0.00,VWS V14.01,2013-03-04 13:16:00,
2013-03-04 08:21:00,23.0,22.3,30.16,NW,315,7.0,8.0,97,0.00,,---,0.00,VWS V14.01,2013-03-04 13:21:00,
2013-03-04 08:26:00,23.0,22.0,30.17,NW,315,7.0,7.0,96,0.00,,---,0.00,VWS V14.01,2013-03-04 13:26:00,
2013-03-04 08:31:00,23.0,22.0,30.17,NW,315,6.0,8.0,96,0.00,,---,0.00,VWS V14.01,2013-03-04 13:31:00,
2013-03-04 08:36:00,23.0,21.8,30.17,NW,315,5.0,7.0,95,0.00,,---,0.00,VWS V14.01,2013-03-04 13:36:00,
2013-03-04 08:41:00,23.0,21.8,30.17,NW,315,6.0,7.0,95,0.00,,---,0.00,VWS V14.01,2013-03-04 13:41:00,
2013-03-04 08:46:00,23.0,21.8,30.17,NW,315,7.0,8.0,95,0.00,,---,0.00,VWS V14.01,2013-03-04 13:46:00,
2013-03-04 08:51:00,23.0,21.8,30.17,NW,315,6.0,7.0,95,0.00,,---,0.00,VWS V14.01,2013-03-04 13:51:00,
2013-03-04 08:56:00,23.0,21.5,30.17,NW,315,6.0,7.0,94,0.00,,---,0.00,VWS V14.01,2013-03-04 13:56:00,
2013-03-04 09:01:00,23.0,21.3,30.17,NW,315,5.0,6.0,93,0.00,,---,0.00,VWS V14.01,2013-03-04 14:01:00,
2013-03-04 09:06:00,23.0,21.3,30.18,NW,315,6.0,6.0,93,0.00,,---,0.00,VWS V14.01,2013-03-04 14:06:00,
2013-03-04 09:11:00,23.0,21.5,30.18,NW,315,6.0,7.0,94,0.00,,---,0.00,VWS V14.01,2013-03-04 14:11:00,
2013-03-04 09:16:00,23.0,21.0,30.18,NW,315,8.0,8.0,92,0.00,,---,0.00,VWS V14.01,2013-03-04 14:16:00,
2013-03-04 09:21:00,23.0,21.0,30.18,NW,315,7.0,8.0,92,0.00,,---,0.00,VWS V14.01,2013-03-04 14:21:00,
2013-03-04 09:26:00,23.0,21.0,30.18,NW,315,7.0,9.0,92,0.00,,---,0.00,VWS V14.01,2013-03-04 14:26:00,
2013-03-04 09:31:00,23.0,20.5,30.18,NW,315,7.0,8.0,90,0.00,,---,0.00,VWS V14.01,2013-03-04 14:31:00,
2013-03-04 09:36:00,23.0,20.5,30.18,NW,315,9.0,9.0,90,0.00,,---,0.00,VWS V14.01,2013-03-04 14:36:00,
2013-03-04 09:41:00,23.0,20.5,30.18,NW,315,7.0,8.0,90,0.00,,---,0.00,VWS V14.01,2013-03-04 14:41:00,
2013-03-04 09:46:00,23.0,20.8,30.18,NW,315,6.0,8.0,91,0.00,,---,0.00,VWS V14.01,2013-03-04 14:46:00,
2013-03-04 09:51:00,23.0,20.5,30.18,WNW,292,9.0,9.0,90,0.00,,---,0.00,VWS V14.01,2013-03-04 14:51:00,
2013-03-04 09:56:00,24.0,21.0,30.18,WNW,292,5.0,8.0,88,0.00,,---,0.00,VWS V14.01,2013-03-04 14:56:00,
2013-03-04 10:01:00,24.0,21.0,30.18,NW,315,9.0,10.0,88,0.00,,---,0.00,VWS V14.01,2013-03-04 15:01:00,
2013-03-04 10:06:00,24.0,20.4,30.18,NW,315,6.0,8.0,86,0.00,,---,0.00,VWS V14.01,2013-03-04 15:06:00,
2013-03-04 10:11:00,24.0,20.7,30.18,NW,315,6.0,8.0,87,0.00,,---,0.00,VWS V14.01,2013-03-04 15:11:00,
2013-03-04 10:16:00,24.0,20.4,30.18,West,270,7.0,8.0,86,0.00,,---,0.00,VWS V14.01,2013-03-04 15:16:00,
2013-03-04 10:21:00,25.0,21.4,30.18,West,270,6.0,7.0,86,0.00,,---,0.00,VWS V14.01,2013-03-04 15:21:00,
2013-03-04 10:26:00,25.0,20.9,30.18,West,270,5.0,8.0,84,0.00,,---,0.00,VWS V14.01,2013-03-04 15:26:00,
2013-03-04 10:31:00,25.0,20.6,30.18,WNW,292,5.0,6.0,83,0.00,,---,0.00,VWS V14.01,2013-03-04 15:31:00,
2013-03-04 10:36:00,25.0,20.9,30.19,WNW,292,5.0,9.0,84,0.00,,---,0.00,VWS V14.01,2013-03-04 15:36:00,
2013-03-04 10:41:00,25.0,20.9,30.19,NW,315,6.0,6.0,84,0.00,,---,0.00,VWS V14.01,2013-03-04 15:41:00,
2013-03-04 10:46:00,25.0,20.6,30.19,WNW,292,6.0,7.0,83,0.00,,---,0.00,VWS V14.01,2013-03-04 15:46:00,
2013-03-04 10:51:00,25.0,20.6,30.19,WNW,292,6.0,7.0,83,0.00,,---,0.00,VWS V14.01,2013-03-04 15:51:00,
2013-03-04 10:56:00,26.0,21.6,30.19,West,270,6.0,8.0,83,0.00,,---,0.00,VWS V14.01,2013-03-04 15:56:00,
2013-03-04 11:01:00,26.0,21.3,30.19,West,270,6.0,6.0,82,0.00,,---,0.00,VWS V14.01,2013-03-04 16:01:00,
2013-03-04 11:06:00,26.0,21.3,30.19,NW,315,6.0,6.0,82,0.00,,---,0.00,VWS V14.01,2013-03-04 16:06:00,
2013-03-04 11:12:00,26.0,21.3,30.19,West,270,4.0,6.0,82,0.00,,---,0.00,VWS V14.01,2013-03-04 16:12:00,
2013-03-04 11:17:00,26.0,21.6,30.19,West,270,7.0,7.0,83,0.00,,---,0.00,VWS V14.01,2013-03-04 16:17:00,
2013-03-04 11:22:00,26.0,20.7,30.19,West,270,5.0,7.0,80,0.00,,---,0.00,VWS V14.01,2013-03-04 16:22:00,
2013-03-04 11:27:00,26.0,20.7,30.18,West,270,10.0,10.0,80,0.00,,---,0.00,VWS V14.01,2013-03-04 16:27:00,
2013-03-04 11:32:00,26.0,21.0,30.18,West,270,5.0,6.0,81,0.00,,---,0.00,VWS V14.01,2013-03-04 16:32:00,
2013-03-04 11:37:00,26.0,21.0,30.18,WNW,292,5.0,8.0,81,0.00,,---,0.00,VWS V14.01,2013-03-04 16:37:00,
2013-03-04 11:42:00,26.0,21.3,30.18,West,270,8.0,10.0,82,0.00,,---,0.00,VWS V14.01,2013-03-04 16:42:00,
2013-03-04 11:47:00,26.0,21.6,30.18,NW,315,8.0,10.0,83,0.00,,---,0.00,VWS V14.01,2013-03-04 16:47:00,
2013-03-04 11:52:00,26.0,21.0,30.18,West,270,6.0,8.0,81,0.00,,---,0.00,VWS V14.01,2013-03-04 16:52:00,
2013-03-04 11:57:00,26.0,21.6,30.18,West,270,4.0,6.0,83,0.00,,---,0.00,VWS V14.01,2013-03-04 16:57:00,
2013-03-04 12:02:00,26.0,21.0,30.18,West,270,11.0,11.0,81,0.00,,---,0.00,VWS V14.01,2013-03-04 17:02:00,
2013-03-04 12:07:00,26.0,21.6,30.18,West,270,7.0,7.0,83,0.00,,---,0.00,VWS V14.01,2013-03-04 17:07:00,
2013-03-04 12:12:00,26.0,21.6,30.18,West,270,8.0,9.0,83,0.00,,---,0.00,VWS V14.01,2013-03-04 17:12:00,
2013-03-04 12:17:00,26.0,21.6,30.18,West,270,5.0,8.0,83,0.00,,---,0.00,VWS V14.01,2013-03-04 17:17:00,
2013-03-04 12:22:00,27.0,21.7,30.18,West,270,7.0,8.0,80,0.00,,---,0.00,VWS V14.01,2013-03-04 17:22:00,
2013-03-04 12:27:00,27.0,22.2,30.17,WNW,292,7.0,10.0,82,0.00,,---,0.00,VWS V14.01,2013-03-04 17:27:00,
2013-03-04 12:32:00,27.0,22.2,30.17,West,270,5.0,8.0,82,0.00,,---,0.00,VWS V14.01,2013-03-04 17:32:00,
2013-03-04 12:37:00,27.0,22.0,30.17,West,270,7.0,10.0,81,0.00,,---,0.00,VWS V14.01,2013-03-04 17:37:00,
2013-03-04 12:42:00,27.0,22.2,30.17,WNW,292,8.0,9.0,82,0.00,,---,0.00,VWS V14.01,2013-03-04 17:42:00,
2013-03-04 12:47:00,27.0,22.2,30.18,West,270,8.0,8.0,82,0.00,,---,0.00,VWS V14.01,2013-03-04 17:47:00,
2013-03-04 12:52:00,27.0,21.7,30.18,WSW,247,6.0,10.0,80,0.00,,---,0.00,VWS V14.01,2013-03-04 17:52:00,
2013-03-04 12:57:00,27.0,21.7,30.16,West,270,6.0,8.0,80,0.00,,---,0.00,VWS V14.01,2013-03-04 17:57:00,
2013-03-04 13:02:00,27.0,21.7,30.16,WNW,292,6.0,8.0,80,0.00,,---,0.00,VWS V14.01,2013-03-04 18:02:00,
2013-03-04 13:07:00,27.0,21.7,30.16,WNW,292,7.0,10.0,80,0.00,,---,0.00,VWS V14.01,2013-03-04 18:07:00,
2013-03-04 13:12:00,27.0,22.0,30.16,WNW,292,8.0,8.0,81,0.00,,---,0.00,VWS V14.01,2013-03-04 18:12:00,
2013-03-04 13:17:00,27.0,22.2,30.16,NW,315,5.0,8.0,82,0.00,,---,0.00,VWS V14.01,2013-03-04 18:17:00,
2013-03-04 13:22:00,27.0,22.2,30.16,WNW,292,8.0,10.0,82,0.00,,---,0.00,VWS V14.01,2013-03-04 18:22:00,
2013-03-04 13:27:00,27.0,22.2,30.16,WNW,292,6.0,9.0,82,0.00,,---,0.00,VWS V14.01,2013-03-04 18:27:00,
2013-03-04 13:29:00,27.0,22.0,30.16,NW,315,5.0,10.0,81,0.00,,---,0.00,VWS V14.01,2013-03-04 18:29:00,
2013-03-04 13:30:00,27.0,22.0,30.16,WNW,292,9.0,10.0,81,0.00,,---,0.00,VWS V14.01,2013-03-04 18:30:00,
2013-03-04 13:35:00,27.0,22.2,30.16,West,270,5.0,7.0,82,0.00,,---,0.00,VWS V14.01,2013-03-04 18:35:00,
2013-03-04 13:40:00,27.0,22.2,30.16,NW,315,10.0,10.0,82,0.00,,---,0.00,VWS V14.01,2013-03-04 18:40:00,
2013-03-04 13:45:00,26.0,21.8,30.16,NW,315,9.0,10.0,84,0.00,,---,0.00,VWS V14.01,2013-03-04 18:45:00,
2013-03-04 13:50:00,27.0,22.5,30.16,West,270,8.0,9.0,83,0.00,,---,0.00,VWS V14.01,2013-03-04 18:50:00,
2013-03-04 13:55:00,27.0,23.1,30.15,West,270,8.0,8.0,85,0.00,,---,0.00,VWS V14.01,2013-03-04 18:55:00,
2013-03-04 14:00:00,27.0,22.8,30.15,West,270,11.0,11.0,84,0.00,,---,0.00,VWS V14.01,2013-03-04 19:00:00,
2013-03-04 14:05:00,28.0,24.1,30.15,WNW,292,8.0,11.0,85,0.00,,---,0.00,VWS V14.01,2013-03-04 19:05:00,
2013-03-04 14:10:00,27.0,22.2,30.15,West,270,10.0,11.0,82,0.00,,---,0.00,VWS V14.01,2013-03-04 19:10:00,
2013-03-04 14:15:00,28.0,23.8,30.15,West,270,8.0,10.0,84,0.00,,---,0.00,VWS V14.01,2013-03-04 19:15:00,
2013-03-04 14:20:00,27.0,23.1,30.15,WNW,292,6.0,9.0,85,0.00,,---,0.00,VWS V14.01,2013-03-04 19:20:00,
2013-03-04 14:25:00,27.0,22.5,30.15,NW,315,10.0,12.0,83,0.00,,---,0.00,VWS V14.01,2013-03-04 19:25:00,
2013-03-04 14:30:00,27.0,22.8,30.15,NW,315,8.0,11.0,84,0.00,,---,0.00,VWS V14.01,2013-03-04 19:30:00,
2013-03-04 14:35:00,27.0,22.2,30.15,WNW,292,8.0,11.0,82,0.00,,---,0.00,VWS V14.01,2013-03-04 19:35:00,
2013-03-04 14:40:00,27.0,22.0,30.15,NW,315,10.0,13.0,81,0.00,,---,0.00,VWS V14.01,2013-03-04 19:40:00,
2013-03-04 14:45:00,28.0,22.6,30.15,West,270,10.0,11.0,80,0.00,,---,0.00,VWS V14.01,2013-03-04 19:45:00,
2013-03-04 14:50:00,28.0,23.5,30.15,NW,315,7.0,9.0,83,0.00,,---,0.00,VWS V14.01,2013-03-04 19:50:00,
2013-03-04 14:55:00,27.0,22.2,30.15,West,270,9.0,10.0,82,0.00,,---,0.00,VWS V14.01,2013-03-04 19:55:00,
2013-03-04 15:00:00,27.0,22.5,30.15,NW,315,8.0,10.0,83,0.00,,---,0.00,VWS V14.01,2013-03-04 20:00:00,
2013-03-04 15:05:00,27.0,22.5,30.15,NW,315,9.0,11.0,83,0.00,,---,0.00,VWS V14.01,2013-03-04 20:05:00,
2013-03-04 15:10:00,27.0,23.1,30.15,NW,315,8.0,11.0,85,0.00,,---,0.00,VWS V14.01,2013-03-04 20:10:00,
2013-03-04 15:15:00,27.0,22.5,30.15,NW,315,10.0,10.0,83,0.00,,---,0.00,VWS V14.01,2013-03-04 20:15:00,
2013-03-04 15:20:00,27.0,22.5,30.15,NW,315,9.0,10.0,83,0.00,,---,0.00,VWS V14.01,2013-03-04 20:20:00,
2013-03-04 15:25:00,27.0,23.1,30.15,NW,315,10.0,10.0,85,0.00,,---,0.00,VWS V14.01,2013-03-04 20:25:00,
2013-03-04 15:30:00,27.0,22.8,30.15,NW,315,10.0,10.0,84,0.00,,---,0.00,VWS V14.01,2013-03-04 20:30:00,
2013-03-04 15:35:00,27.0,23.1,30.14,NW,315,10.0,11.0,85,0.00,,---,0.00,VWS V14.01,2013-03-04 20:35:00,
2013-03-04 15:40:00,27.0,22.5,30.14,WNW,292,10.0,10.0,83,0.00,,---,0.00,VWS V14.01,2013-03-04 20:40:00,
2013-03-04 15:45:00,27.0,22.8,30.14,NW,315,10.0,10.0,84,0.00,,---,0.00,VWS V14.01,2013-03-04 20:45:00,
2013-03-04 15:50:00,27.0,22.5,30.14,NW,315,8.0,10.0,83,0.00,,---,0.00,VWS V14.01,2013-03-04 20:50:00,
2013-03-04 15:55:00,27.0,22.8,30.14,NW,315,8.0,9.0,84,0.00,,---,0.00,VWS V14.01,2013-03-04 20:55:00,
2013-03-04 16:00:00,27.0,22.2,30.14,NW,315,6.0,8.0,82,0.00,,---,0.00,VWS V14.01,2013-03-04 21:00:00,
2013-03-04 16:05:00,28.0,22.9,30.15,NW,315,5.0,7.0,81,0.00,,---,0.00,VWS V14.01,2013-03-04 21:05:00,
2013-03-04 16:10:00,28.0,23.2,30.15,NW,315,7.0,9.0,82,0.00,,---,0.00,VWS V14.01,2013-03-04 21:10:00,
2013-03-04 16:15:00,28.0,22.6,30.15,NW,315,8.0,9.0,80,0.00,,---,0.00,VWS V14.01,2013-03-04 21:15:00,
2013-03-04 16:20:00,27.0,22.2,30.15,NW,315,7.0,8.0,82,0.00,,---,0.00,VWS V14.01,2013-03-04 21:20:00,
2013-03-04 16:25:00,27.0,22.0,30.15,NW,315,7.0,8.0,81,0.00,,---,0.00,VWS V14.01,2013-03-04 21:25:00,
2013-03-04 16:30:00,28.0,23.5,30.15,NW,315,6.0,8.0,83,0.00,,---,0.00,VWS V14.01,2013-03-04 21:30:00,
2013-03-04 16:35:00,27.0,22.2,30.15,NW,315,7.0,8.0,82,0.00,,---,0.00,VWS V14.01,2013-03-04 21:35:00,
2013-03-04 16:40:00,27.0,22.2,30.15,NW,315,6.0,8.0,82,0.00,,---,0.00,VWS V14.01,2013-03-04 21:40:00,
2013-03-04 16:45:00,28.0,23.5,30.15,NW,315,6.0,7.0,83,0.00,,---,0.00,VWS V14.01,2013-03-04 21:45:00,
2013-03-04 16:50:00,27.0,21.7,30.15,NW,315,5.0,8.0,80,0.00,,---,0.00,VWS V14.01,2013-03-04 21:50:00,
2013-03-04 16:55:00,27.0,22.2,30.15,NW,315,5.0,5.0,82,0.00,,---,0.00,VWS V14.01,2013-03-04 21:55:00,
2013-03-04 17:00:00,28.0,23.5,30.15,NW,315,6.0,6.0,83,0.00,,---,0.00,VWS V14.01,2013-03-04 22:00:00,
2013-03-04 17:05:00,27.0,22.5,30.15,NW,315,6.0,6.0,83,0.00,,---,0.00,VWS V14.01,2013-03-04 22:05:00,
2013-03-04 17:10:00,27.0,22.2,30.15,NW,315,6.0,7.0,82,0.00,,---,0.00,VWS V14.01,2013-03-04 22:10:00,
2013-03-04 17:15:00,27.0,22.2,30.15,NW,315,6.0,8.0,82,0.00,,---,0.00,VWS V14.01,2013-03-04 22:15:00,
2013-03-04 17:20:00,27.0,22.2,30.15,NW,315,6.0,7.0,82,0.00,,---,0.00,VWS V14.01,2013-03-04 22:20:00,
2013-03-04 17:25:00,27.0,22.5,30.14,NW,315,5.0,6.0,83,0.00,,---,0.00,VWS V14.01,2013-03-04 22:25:00,
2013-03-04 17:30:00,26.0,21.3,30.14,NW,315,6.0,8.0,82,0.00,,---,0.00,VWS V14.01,2013-03-04 22:30:00,
2013-03-04 17:35:00,27.0,22.5,30.14,WNW,292,5.0,6.0,83,0.00,,---,0.00,VWS V14.01,2013-03-04 22:35:00,
2013-03-04 17:40:00,26.0,21.8,30.14,NW,315,8.0,8.0,84,0.00,,---,0.00,VWS V14.01,2013-03-04 22:40:00,
2013-03-04 17:45:00,26.0,21.8,30.15,NW,315,5.0,6.0,84,0.00,,---,0.00,VWS V14.01,2013-03-04 22:45:00,
2013-03-04 17:50:00,26.0,22.4,30.15,NW,315,5.0,6.0,86,0.00,,---,0.00,VWS V14.01,2013-03-04 22:50:00,
2013-03-04 17:55:00,26.0,22.7,30.15,NW,315,4.0,5.0,87,0.00,,---,0.00,VWS V14.01,2013-03-04 22:55:00,
2013-03-04 18:00:00,26.0,22.9,30.15,NW,315,3.0,5.0,88,0.00,,---,0.00,VWS V14.01,2013-03-04 23:00:00,
2013-03-04 18:05:00,26.0,22.7,30.14,NW,315,4.0,4.0,87,0.00,,---,0.00,VWS V14.01,2013-03-04 23:05:00,
2013-03-04 18:10:00,26.0,22.7,30.14,NW,315,3.0,3.0,87,0.00,,---,0.00,VWS V14.01,2013-03-04 23:10:00,
2013-03-04 18:15:00,25.0,22.0,30.14,NW,315,5.0,5.0,88,0.00,,---,0.00,VWS V14.01,2013-03-04 23:15:00,
2013-03-04 18:20:00,26.0,23.2,30.14,NW,315,4.0,4.0,89,0.00,,---,0.00,VWS V14.01,2013-03-04 23:20:00,
2013-03-04 18:25:00,25.0,22.2,30.14,NW,315,1.0,3.0,89,0.00,,---,0.00,VWS V14.01,2013-03-04 23:25:00,
2013-03-04 18:30:00,25.0,22.5,30.14,NW,315,1.0,2.0,90,0.00,,---,0.00,VWS V14.01,2013-03-04 23:30:00,
2013-03-04 18:35:00,25.0,22.8,30.13,NW,315,0.0,1.0,91,0.00,,---,0.00,VWS V14.01,2013-03-04 23:35:00,
2013-03-04 18:40:00,25.0,22.8,30.13,NW,315,0.0,0.0,91,0.00,,---,0.00,VWS V14.01,2013-03-04 23:40:00,
2013-03-04 18:45:00,24.0,22.0,30.13,NW,315,0.0,0.0,92,0.00,,---,0.00,VWS V14.01,2013-03-04 23:45:00,
2013-03-04 18:50:00,24.0,22.3,30.13,NW,315,0.0,0.0,93,0.00,,---,0.00,VWS V14.01,2013-03-04 23:50:00,
2013-03-04 18:55:00,24.0,22.3,30.13,NW,315,0.0,0.0,93,0.00,,---,0.00,VWS V14.01,2013-03-04 23:55:00,
2013-03-04 19:00:00,24.0,22.5,30.13,NW,315,0.0,0.0,94,0.00,,---,0.00,VWS V14.01,2013-03-05 00:00:00,
2013-03-04 19:05:00,24.0,22.5,30.13,NW,315,0.0,0.0,94,0.00,,---,0.00,VWS V14.01,2013-03-05 00:05:00,
2013-03-04 19:10:00,23.0,21.8,30.13,NW,315,0.0,0.0,95,0.00,,---,0.00,VWS V14.01,2013-03-05 00:10:00,
2013-03-04 19:15:00,23.0,22.0,30.13,NW,315,0.0,0.0,96,0.00,,---,0.00,VWS V14.01,2013-03-05 00:15:00,
2013-03-04 19:20:00,23.0,22.0,30.13,NW,315,0.0,0.0,96,0.00,,---,0.00,VWS V14.01,2013-03-05 00:20:00,
2013-03-04 19:25:00,23.0,22.0,30.13,NW,315,0.0,0.0,96,0.00,,---,0.00,VWS V14.01,2013-03-05 00:25:00,
2013-03-04 19:30:00,23.0,22.0,30.13,NW,315,0.0,0.0,96,0.00,,---,0.00,VWS V14.01,2013-03-05 00:30:00,
2013-03-04 19:35:00,23.0,22.3,30.13,NW,315,0.0,0.0,97,0.00,,---,0.00,VWS V14.01,2013-03-05 00:35:00,
2013-03-04 19:40:00,23.0,22.3,30.13,NW,315,0.0,0.0,97,0.00,,---,0.00,VWS V14.01,2013-03-05 00:40:00,
2013-03-04 19:45:00,23.0,22.0,30.13,NW,315,0.0,0.0,96,0.00,,---,0.00,VWS V14.01,2013-03-05 00:45:00,
2013-03-04 19:50:00,23.0,21.8,30.13,NW,315,0.0,0.0,95,0.00,,---,0.00,VWS V14.01,2013-03-05 00:50:00,
2013-03-04 19:55:00,23.0,22.0,30.13,NW,315,0.0,0.0,96,0.00,,---,0.00,VWS V14.01,2013-03-05 00:55:00,
2013-03-04 20:00:00,23.0,22.0,30.13,NW,315,0.0,0.0,96,0.00,,---,0.00,VWS V14.01,2013-03-05 01:00:00,
2013-03-04 20:05:00,23.0,22.3,30.13,NW,315,0.0,0.0,97,0.00,,---,0.00,VWS V14.01,2013-03-05 01:05:00,
2013-03-04 20:10:00,23.0,22.0,30.13,NW,315,0.0,0.0,96,0.00,,---,0.00,VWS V14.01,2013-03-05 01:10:00,
2013-03-04 20:15:00,23.0,22.0,30.12,NW,315,0.0,0.0,96,0.00,,---,0.00,VWS V14.01,2013-03-05 01:15:00,
2013-03-04 20:20:00,22.0,21.3,30.12,NW,315,0.0,0.0,97,0.00,,---,0.00,VWS V14.01,2013-03-05 01:20:00,
2013-03-04 20:25:00,23.0,22.3,30.12,SE,135,3.0,4.0,97,0.00,,---,0.00,VWS V14.01,2013-03-05 01:25:00,
2013-03-04 20:30:00,23.0,22.3,30.12,SE,135,1.0,1.0,97,0.00,,---,0.00,VWS V14.01,2013-03-05 01:30:00,
2013-03-04 20:35:00,23.0,22.0,30.12,SE,135,0.0,1.0,96,0.00,,---,0.00,VWS V14.01,2013-03-05 01:35:00,
2013-03-04 20:40:00,23.0,21.8,30.12,SE,135,0.0,1.0,95,0.00,,---,0.00,VWS V14.01,2013-03-05 01:40:00,
2013-03-04 20:45:00,23.0,21.8,30.12,SE,135,2.0,3.0,95,0.00,,---,0.00,VWS V14.01,2013-03-05 01:45:00,
2013-03-04 20:50:00,23.0,21.5,30.12,SE,135,2.0,2.0,94,0.00,,---,0.00,VWS V14.01,2013-03-05 01:50:00,
2013-03-04 20:55:00,24.0,22.3,30.12,SE,135,3.0,3.0,93,0.00,,---,0.00,VWS V14.01,2013-03-05 01:55:00,
2013-03-04 21:00:00,24.0,21.8,30.12,SE,135,3.0,3.0,91,0.00,,---,0.00,VWS V14.01,2013-03-05 02:00:00,
2013-03-04 21:05:00,23.0,21.3,30.12,SE,135,2.0,2.0,93,0.00,,---,0.00,VWS V14.01,2013-03-05 02:05:00,
2013-03-04 21:11:00,23.0,21.5,30.12,SE,135,1.0,2.0,94,0.00,,---,0.00,VWS V14.01,2013-03-05 02:11:00,
2013-03-04 21:16:00,23.0,21.8,30.12,SE,135,2.0,2.0,95,0.00,,---,0.00,VWS V14.01,2013-03-05 02:16:00,
2013-03-04 21:21:00,23.0,21.8,30.12,SE,135,4.0,4.0,95,0.00,,---,0.00,VWS V14.01,2013-03-05 02:21:00,
2013-03-04 21:26:00,23.0,21.5,30.12,SE,135,3.0,3.0,94,0.00,,---,0.00,VWS V14.01,2013-03-05 02:26:00,
2013-03-04 21:31:00,23.0,21.8,30.12,SE,135,2.0,3.0,95,0.00,,---,0.00,VWS V14.01,2013-03-05 02:31:00,
2013-03-04 21:36:00,23.0,21.8,30.12,SE,135,3.0,3.0,95,0.00,,---,0.00,VWS V14.01,2013-03-05 02:36:00,
2013-03-04 21:41:00,23.0,21.8,30.12,SE,135,3.0,3.0,95,0.00,,---,0.00,VWS V14.01,2013-03-05 02:41:00,
2013-03-04 21:46:00,23.0,21.8,30.12,SE,135,3.0,3.0,95,0.00,,---,0.00,VWS V14.01,2013-03-05 02:46:00,
2013-03-04 21:51:00,23.0,21.8,30.12,SE,135,3.0,4.0,95,0.00,,---,0.00,VWS V14.01,2013-03-05 02:51:00,
2013-03-04 21:56:00,23.0,21.8,30.12,SE,135,4.0,5.0,95,0.00,,---,0.00,VWS V14.01,2013-03-05 02:56:00,
2013-03-04 22:01:00,23.0,21.8,30.12,SE,135,3.0,4.0,95,0.00,,---,0.00,VWS V14.01,2013-03-05 03:01:00,
2013-03-04 22:06:00,23.0,21.5,30.12,SE,135,2.0,3.0,94,0.00,,---,0.00,VWS V14.01,2013-03-05 03:06:00,
2013-03-04 22:11:00,23.0,21.8,30.12,SSE,157,4.0,4.0,95,0.00,,---,0.00,VWS V14.01,2013-03-05 03:11:00,
2013-03-04 22:16:00,22.0,21.0,30.12,SSE,157,3.0,4.0,96,0.00,,---,0.00,VWS V14.01,2013-03-05 03:16:00,
2013-03-04 22:21:00,23.0,21.8,30.12,SSE,157,3.0,3.0,95,0.00,,---,0.00,VWS V14.01,2013-03-05 03:21:00,
2013-03-04 22:26:00,23.0,21.8,30.12,SSE,157,2.0,3.0,95,0.00,,---,0.00,VWS V14.01,2013-03-05 03:26:00,
2013-03-04 22:31:00,23.0,21.8,30.12,SSE,157,3.0,3.0,95,0.00,,---,0.00,VWS V14.01,2013-03-05 03:31:00,
2013-03-04 22:36:00,23.0,21.8,30.12,SSE,157,2.0,3.0,95,0.00,,---,0.00,VWS V14.01,2013-03-05 03:36:00,
2013-03-04 22:41:00,23.0,21.5,30.12,SSE,157,3.0,4.0,94,0.00,,---,0.00,VWS V14.01,2013-03-05 03:41:00,
2013-03-04 22:46:00,23.0,21.5,30.12,SSE,157,3.0,3.0,94,0.00,,---,0.00,VWS V14.01,2013-03-05 03:46:00,
2013-03-04 22:51:00,23.0,21.5,30.12,SSE,157,3.0,3.0,94,0.00,,---,0.00,VWS V14.01,2013-03-05 03:51:00,
2013-03-04 22:56:00,23.0,21.5,30.12,SSE,157,2.0,3.0,94,0.00,,---,0.00,VWS V14.01,2013-03-05 03:56:00,
2013-03-04 23:01:00,23.0,21.5,30.12,SSE,157,2.0,2.0,94,0.00,,---,0.00,VWS V14.01,2013-03-05 04:01:00,
2013-03-04 23:06:00,23.0,21.5,30.12,SSE,157,3.0,3.0,94,0.00,,---,0.00,VWS V14.01,2013-03-05 04:06:00,
2013-03-04 23:11:00,22.0,20.8,30.12,SSE,157,3.0,3.0,95,0.00,,---,0.00,VWS V14.01,2013-03-05 04:11:00,
2013-03-04 23:16:00,22.0,21.0,30.12,SSE,157,3.0,3.0,96,0.00,,---,0.00,VWS V14.01,2013-03-05 04:16:00,
2013-03-04 23:21:00,23.0,21.8,30.12,SSE,157,3.0,4.0,95,0.00,,---,0.00,VWS V14.01,2013-03-05 04:21:00,
2013-03-04 23:26:00,22.0,20.8,30.12,SSE,157,3.0,3.0,95,0.00,,---,0.00,VWS V14.01,2013-03-05 04:26:00,
2013-03-04 23:31:00,22.0,20.8,30.12,SSE,157,3.0,3.0,95,0.00,,---,0.00,VWS V14.01,2013-03-05 04:31:00,
2013-03-04 23:36:00,22.0,21.0,30.12,SSE,157,3.0,3.0,96,0.00,,---,0.00,VWS V14.01,2013-03-05 04:36:00,
2013-03-04 23:41:00,22.0,21.3,30.12,SSE,157,4.0,4.0,97,0.00,,---,0.00,VWS V14.01,2013-03-05 04:41:00,
2013-03-04 23:46:00,22.0,21.3,30.12,SSE,157,3.0,3.0,97,0.00,,---,0.00,VWS V14.01,2013-03-05 04:46:00,
2013-03-04 23:51:00,22.0,21.3,30.12,SSE,157,2.0,2.0,97,0.00,,---,0.00,VWS V14.01,2013-03-05 04:51:00,
2013-03-04 23:56:00,22.0,21.3,30.12,SSE,157,3.0,3.0,97,0.00,,---,0.00,VWS V14.01,2013-03-05 04:56:00,